RH
41 44 44 43 41 36 32 28 26 19 13 15 14 13 13 12 13 16 22 32 38 42 41 46 52 52 49 52 59 66 80 80 72 69 66 66 67 70 78 86 88 73 80
41 46 46 44 44 38 33 29 28 23 14 14 14 13 12 14 16 20 26 40 44 44 46 41 41 39 43 48 58 72 74 85 90 89 92 79 72 78 70 62 100 84 89
42 48 53 48 46 40 36 34 29 24 16 14 13 13 14 14 15 26 32 34 48 51 52 51 51 58 50 52 53 53 53 53 60 83 81 80 67 80 77 94 100 100 99
55 56 53 54 51 46 41 34 31 28 16 14 14 14 14 14 16 22 29 36 40 46 52 54 51 57 66 67 63 63 60 60 59 55 56 66 73 70 65 70 81 91 97
68 56 51 55 50 50 42 39 35 35 17 15 15 15 15 15 16 16 17 24 30 40 45 53 61 72 70 72 70 65 69 72 68 69 70 76 81 79 82 87 86 67 71
68 59 56 53 48 55 47 44 43 42 28 18 16 16 16 16 16 16 17 18 19 24 28 32 37 46 57 52 54 60 65 79 78 72 57 60 69 67 62 62 72 74 70
67 66 59 55 53 55 51 49 42 47 44 34 24 17 17 17 17 18 18 18 18 20 22 24 26 28 31 32 36 40 38 39 34 38 45 40 49 48 58 64 58 59 61
70 71 73 65 56 53 54 53 43 50 51 36 30 20 18 18 18 20 20 20 21 21 21 21 21 22 23 23 20 19 20 22 24 24 23 23 21 21 20 20 21 22 22
87 87 83 72 51 56 52 50 43 56 57 41 30 26 19 18 19 19 20 21 21 21 20 20 20 19 18 18 18 17 17 16 17 16 17 18 19 20 20 21 21 21 22
95 93 85 66 62 64 59 49 43 52 60 48 34 24 23 20 20 21 22 21 20 20 19 19 19 16 16 16 16 16 16 16 17 16 16 16 16 16 16 18 20 21 22
100 90 88 81 69 81 66 50 46 63 67 53 37 30 24 23 24 24 23 23 22 22 22 21 21 20 18 17 16 16 16 16 16 16 17 17 17 17 17 17 17 17 19
100 100 98 80 84 90 69 47 48 62 67 58 41 29 28 26 25 25 26 27 26 23 22 22 21 21 20 19 17 18 17 16 15 14 13 13 13 14 15 16 18 20 21
100 100 94 88 100 81 66 49 50 70 72 60 34 29 30 31 31 34 33 30 29 26 24 22 22 21 22 20 21 19 17 16 16 16 16 16 16 14 14 13 15 15 18
100 100 100 100 81 79 62 49 54 79 74 50 42 37 37 36 38 36 34 34 30 28 24 21 19 20 23 25 24 24 25 25 25 24 23 22 22 22 22 20 18 18 16
100 100 96 88 80 80 61 55 70 80 63 51 49 46 42 42 39 32 29 27 26 26 23 20 22 25 26 25 25 28 29 28 28 29 29 26 27 26 24 24 23 23 27
96 82 76 68 66 74 65 60 76 71 56 49 51 49 53 55 49 37 27 25 22 22 22 23 26 27 27 29 31 30 30 28 29 31 33 32 27 25 24 24 26 24 24
86 80 80 61 61 69 72 79 85 60 65 53 54 62 65 56 51 35 33 28 25 23 24 26 26 26 26 28 30 30 31 31 34 35 36 34 27 26 27 28 29 29 28
72 76 84 85 75 92 90 90 82 88 57 42 48 54 54 52 45 38 32 30 26 26 29 28 28 29 34 34 33 35 38 44 41 35 30 29 30 32 30 27 26 26 25
99 85 79 100 100 95 100 100 93 52 42 37 45 53 42 39 36 27 28 29 34 30 31 33 34 34 37 39 42 45 48 50 42 36 32 30 29 27 27 26 22 20 20
100 100 100 100 99 92 83 53 32 32 31 33 33 32 31 30 28 29 29 33 39 36 38 39 40 44 47 53 65 56 49 43 40 34 30 29 29 24 22 20 16 14 12
26 26 24 25 28 26 25 27 27 27 28 28 27 29 29 31 32 36 36 37 48 51 52 56 57 67 78 65 66 66 57 40 32 30 31 30 24 18 17 14 13 10 9
29 30 29 29 29 28 28 28 27 27 28 27 27 27 30 32 36 41 40 43 46 47 53 60 61 66 64 62 71 54 39 34 32 32 31 23 22 26 27 27 25 19 17
32 31 31 31 30 30 30 30 30 29 28 28 28 28 26 30 33 48 58 51 52 50 62 60 70 59 51 53 54 41 37 34 33 30 26 30 41 43 37 30 22 15 12
37 35 34 36 36 38 36 36 35 32 31 31 33 28 29 30 33 35 43 55 66 59 59 64 70 68 64 55 41 38 37 43 36 30 46 52 46 41 34 32 26 17 12
34 36 37 38 38 36 31 32 30 29 28 30 34 28 29 32 36 44 46 56 56 61 81 76 72 65 57 45 42 39 43 40 54 72 64 53 51 48 45 40 27 19 14
37 37 36 36 34 34 35 34 32 30 30 33 33 30 33 41 47 48 51 48 45 49 57 63 63 54 45 51 44 44 43 39 64 65 62 54 62 48 51 42 29 20 12
Wind_Speed
29 30 30 30 29 30 33 31 31 30 26 23 21 21 21 21 21 20 20 18 18 18 20 22 24 25 27 27 26 26 25 26 27 28 30 29 29 26 24 23 26 28 27
31 29 29 28 30 28 31 32 31 31 26 24 22 19 20 20 20 19 18 19 19 20 21 22 23 24 27 30 31 31 30 30 30 32 33 32 32 30 30 28 31 30 30
30 29 28 29 29 28 31 30 32 32 27 25 22 19 17 17 17 18 18 19 19 21 23 23 25 26 27 28 30 31 32 33 34 35 35 34 34 35 33 33 31 32 33
30 28 28 30 29 30 30 30 30 31 27 24 22 20 19 17 16 15 15 17 19 22 23 25 27 27 28 29 31 32 33 33 33 33 33 35 35 35 37 39 38 38 39
30 29 31 31 29 29 30 30 29 29 27 24 22 19 19 18 18 18 17 17 18 20 22 25 28 29 30 31 32 32 30 30 31 31 31 34 35 34 33 36 38 36 36
31 30 30 32 31 29 30 31 30 27 27 26 23 22 21 21 22 21 21 21 21 23 24 25 26 27 30 31 32 32 33 34 34 35 34 33 34 34 36 36 33 36 37
33 33 34 34 33 31 31 33 32 27 28 29 27 25 24 24 25 24 24 25 25 26 27 28 29 31 33 35 36 36 37 36 36 37 39 40 40 40 40 41 41 41 42
37 36 37 37 35 32 32 33 33 30 29 29 30 27 28 28 28 28 28 28 27 27 29 30 33 34 35 37 39 41 43 42 42 42 43 43 43 43 43 43 43 43 43
39 41 42 41 38 35 34 35 34 32 30 31 32 31 31 32 32 32 32 33 34 35 35 37 38 39 41 42 44 46 48 47 48 47 47 46 47 47 47 47 47 48 46
42 44 44 43 40 37 37 37 35 33 32 34 35 33 34 34 35 36 37 38 40 41 41 42 42 44 45 46 47 48 50 50 51 52 52 52 53 52 52 51 51 51 50
46 45 45 46 42 40 40 38 37 34 36 36 39 38 38 39 40 41 41 43 44 44 45 47 49 50 52 52 51 51 51 52 53 52 54 54 55 56 57 57 56 56 54
46 46 47 47 45 45 42 39 39 36 37 40 43 41 41 42 43 44 46 47 48 50 52 54 54 55 57 57 56 52 50 50 51 52 53 52 53 54 55 57 58 61 62
47 50 50 48 47 47 44 42 42 40 39 45 45 43 44 45 47 48 49 51 53 54 55 57 59 60 57 54 51 50 49 50 48 49 50 50 49 50 52 52 53 56 59
50 52 52 52 50 45 45 44 43 42 45 50 49 49 49 49 49 50 53 55 56 57 58 57 57 56 52 49 48 46 47 48 50 51 52 52 53 52 55 56 55 55 55
55 53 52 49 47 49 50 46 45 44 51 53 53 54 53 52 52 54 56 57 58 57 57 57 54 52 49 48 48 49 50 52 54 55 58 59 59 60 61 62 64 63 61
51 50 50 51 52 52 51 48 46 52 56 57 57 56 55 54 56 58 56 54 53 55 56 53 51 48 48 49 52 54 56 58 60 61 61 63 65 66 66 65 66 68 67
53 53 52 50 51 52 52 51 52 59 63 61 60 58 58 58 59 57 58 57 56 55 53 51 49 49 51 54 57 60 63 65 66 68 70 71 73 71 68 67 66 64 64
50 50 52 55 54 55 55 55 59 66 67 65 62 61 60 61 59 60 59 58 56 55 52 51 51 52 55 58 62 64 68 70 71 72 73 75 73 70 68 67 66 65 64
50 51 52 56 58 58 58 60 68 71 67 66 63 63 62 61 60 60 59 58 58 55 54 54 54 56 58 61 66 69 71 74 76 75 74 67 66 68 71 72 71 71 71
49 53 55 59 64 66 70 71 66 66 65 64 63 63 62 61 61 61 60 58 57 56 55 56 57 59 63 66 70 73 75 76 76 74 68 68 72 75 76 75 76 77 73
57 58 61 62 65 66 66 67 67 66 65 66 65 66 66 65 63 62 61 59 58 59 61 60 62 64 68 73 75 76 78 78 72 67 69 74 75 71 69 67 67 67 64
61 64 65 67 69 69 69 70 70 70 68 67 68 68 67 64 64 63 65 61 59 62 63 64 66 68 69 73 75 80 79 72 66 67 72 69 64 62 60 60 61 59 57
66 68 69 70 71 72 73 74 74 75 74 73 72 71 70 67 67 67 65 65 66 66 67 67 70 70 71 72 74 73 70 68 69 68 59 53 53 53 55 55 57 54 50
70 70 73 74 75 77 79 80 79 78 78 78 76 74 73 72 73 72 71 72 72 71 70 71 72 72 74 73 69 67 65 68 71 59 49 47 47 49 51 54 56 56 55
71 72 74 76 78 79 81 82 81 81 81 79 77 76 74 74 75 75 75 76 75 74 74 74 74 75 74 68 65 62 63 64 45 45 46 44 41 44 46 49 55 58 59
72 73 75 78 79 81 83 83 84 83 82 79 78 77 75 75 76 76 78 79 80 78 78 78 79 78 71 65 63 62 63 45 38 40 39 37 37 39 34 39 46 50 51
Wind_Direction
284 293 302 307 310 313 322 324 326 330 326 320 310 303 295 291 289 288 283 277 270 264 262 262 263 263 264 260 258 260 264 266 264 265 269 272 270 267 268 275 286 283 285
284 293 300 306 309 312 321 323 324 331 327 323 316 312 308 302 299 292 284 280 276 273 269 266 265 265 263 264 264 265 265 264 266 268 271 270 270 273 273 270 285 282 283
285 291 297 301 306 313 318 323 327 330 328 323 320 319 318 319 316 302 292 287 281 280 276 276 274 270 269 271 273 274 274 273 269 267 271 272 271 268 270 275 281 280 279
283 287 295 298 301 307 315 324 326 331 330 326 325 327 329 326 323 321 309 301 292 286 283 279 277 278 275 274 277 279 280 281 280 277 276 274 276 273 270 272 272 275 275
281 290 296 292 300 306 312 318 322 329 331 332 328 329 331 329 327 324 317 306 298 291 290 286 283 283 283 282 281 279 279 279 281 280 281 278 277 276 275 275 276 275 274
280 289 294 296 295 304 308 313 317 320 330 331 327 324 325 325 323 320 319 315 309 302 300 297 294 291 287 286 285 283 280 280 282 281 281 279 278 279 277 276 272 277 277
279 287 291 295 295 300 304 307 312 313 316 325 324 318 317 318 316 314 311 308 305 299 295 291 287 285 284 284 283 282 280 278 277 277 279 279 278 277 273 272 276 275 276
276 284 290 291 294 296 302 303 306 306 311 313 315 310 308 310 311 310 308 306 300 296 294 291 288 288 286 285 284 283 280 278 277 276 275 275 276 276 277 276 276 276 277
278 280 287 288 290 294 298 300 302 302 304 307 309 307 304 307 307 308 308 306 301 297 294 291 288 287 287 285 284 283 282 282 280 277 276 275 274 274 274 275 275 275 275
278 278 282 284 288 290 293 296 298 297 299 304 306 305 303 302 304 305 305 303 301 298 297 296 293 290 289 288 288 286 283 282 279 278 278 277 276 274 273 272 271 271 272
276 277 279 281 286 289 288 293 295 293 296 303 304 301 302 302 302 302 302 302 300 296 295 293 292 291 291 290 290 287 283 282 281 280 278 276 276 275 274 273 273 272 270
275 275 276 281 285 286 285 289 290 289 292 298 303 301 300 301 299 300 300 299 296 294 292 291 290 291 293 293 292 289 285 283 284 284 282 280 278 276 275 273 272 271 270
271 272 277 282 280 283 284 289 290 288 292 299 298 299 299 300 299 298 297 295 294 293 293 293 293 294 295 295 292 291 290 291 289 288 287 286 286 285 282 278 275 271 270
268 271 275 278 279 279 286 290 288 288 293 298 297 298 299 299 297 295 294 293 294 294 295 296 295 295 294 292 293 294 295 294 294 293 291 290 287 286 285 283 280 277 274
267 270 273 274 277 281 288 286 284 287 296 298 298 299 298 296 295 295 295 296 298 298 297 297 295 293 292 291 291 291 292 293 293 292 291 289 287 286 285 282 280 277 274
267 271 274 278 281 282 283 283 281 289 296 297 296 297 297 298 297 297 299 298 299 297 296 295 293 292 291 290 290 290 292 294 294 294 292 291 290 288 286 282 280 277 274
270 273 275 278 279 279 283 280 282 291 297 296 296 296 296 295 296 298 297 297 298 297 295 293 290 289 289 289 290 292 294 295 296 295 295 294 293 290 286 283 280 276 274
270 269 274 274 277 280 282 278 284 292 296 296 294 293 293 294 294 295 297 296 296 294 292 290 289 289 290 291 293 294 295 296 296 296 295 296 294 290 286 283 279 276 273
269 271 274 272 275 278 278 281 286 291 293 294 294 293 293 293 293 295 296 296 295 292 290 290 290 290 291 291 292 294 295 295 298 299 298 296 293 291 286 283 281 278 273
262 264 268 268 277 279 281 284 288 290 293 293 292 293 294 295 296 295 295 294 292 290 290 291 291 291 291 291 291 293 295 298 300 299 298 296 295 291 287 286 284 281 277
271 273 276 279 280 282 283 287 289 291 292 293 295 294 294 295 295 294 292 291 288 288 289 290 289 290 291 292 294 295 295 298 300 301 299 298 295 291 290 289 286 283 281
272 273 275 278 281 284 287 289 291 292 292 293 294 293 293 293 293 291 292 289 288 288 291 290 291 293 295 296 298 297 299 300 302 300 301 298 296 295 295 294 293 290 285
274 277 279 281 284 286 289 289 290 292 292 292 292 292 291 290 290 289 289 290 289 287 286 290 291 293 296 299 301 300 302 303 302 303 299 298 298 298 298 298 297 298 293
276 280 282 284 288 288 288 289 290 290 291 292 292 290 289 289 291 291 290 290 290 291 288 291 291 293 295 298 300 301 302 305 306 304 301 300 300 302 304 303 304 307 306
278 281 284 285 285 287 289 289 290 291 291 291 291 290 289 291 292 290 290 288 287 287 286 289 290 292 296 297 299 299 303 305 299 301 303 305 305 300 305 307 307 308 310
281 284 284 284 285 287 287 288 291 291 290 291 290 289 290 291 290 288 288 288 286 285 286 285 288 291 293 295 297 301 303 296 291 296 302 300 299 302 310 313 312 312 317